Regional Weather Roundup
Issued by NWS

Home | Current Version | Previous Version | Text Only | Print | Product List | Glossary On
Versions: 1 2 3 4 5 6 7 8 9 10 11 12 13 14 15 16 17 18 19 20 21 22 23 24 25 26 27 28 29 30 31 32 33 34 35 36 37 38 39 40 41 42 43 44 45 46 47 48 49 50
000
ASCA44 KEWX 171820
RWRMX

LATIN AMERICA AND CARIBBEAN REGIONAL WEATHER ROUNDUP
NATIONAL WEATHER SERVICE AUSTIN/SAN ANTONIO TX
100 PM CDT WED SEP 17 2014

NOTE: "FAIR" INDICATED FEW OR NO CLOUDS BELOW 12,000 FEET WITH NO
SIGNIFICANT WEATHER AND/OR OBSTRUCTIONS TO VISIBILITY.

BAJA CALIFORNIA

CITY           SKY/WX    TMP DP  RH WIND       PRES   REMARKS
LORETO           N/A    N/A N/A N/A MISG        N/A
LA PAZ           N/A    N/A N/A N/A MISG        N/A
MEXICALI       MOSUNNY   93  68  43 W7        29.76  HX  97
S.J. DEL CABO  MOSUNNY   90  73  58 S2        29.88S HX  98
TIJUANA        SUNNY     93  59  31 W12       29.77F HX  92

NORTHWESTERN MEXICO

CITY           SKY/WX    TMP DP  RH WIND       PRES   REMARKS
CULIACAN       PTSUNNY   90  75  62 CALM      29.85  HX 100
DURANGO        MOSUNNY   75  54  46 SE7       30.23F
GUAYMAS        PTSUNNY   88  75  66 S12       29.76  HX  97
HERMOSILLO       N/A    N/A N/A N/A MISG        N/A
CD. JUAREZ     PTSUNNY   75  64  69 E9        30.03
LOS MOCHIS     PTSUNNY   84  73  70 CALM      29.86S HX  91
OBREGON        PTSUNNY   88  72  58 SE7       29.81  HX  94

NORTHEASTERN MEXICO

CITY           SKY/WX    TMP DP  RH WIND       PRES   REMARKS
CHIHUAHUA      PTSUNNY   81  57  44 SE9       30.10
MATAMOROS      CLOUDY    90  79  70 S14       29.96  HX 105
MONCLOVA       PTSUNNY   86  72  62 CALM      29.95F HX  92
MONTERREY      PTSUNNY   82  68  61 E5        29.95F
NUEVO LAREDO   PTSUNNY   88  73  62 S7        29.93  HX  96
PIEDRAS NEGRAS PTSUNNY   86  75  70 SE7       29.95  HX  95
REYNOSA        MOSUNNY   86  72  62 S13       29.92  HX  92
SALTILLO       SUNNY     82  63  51 NW7       30.14F
TORREON        MOSUNNY   84  59  42 CALM      30.06F
CD. VICTORIA   MOSUNNY   86  66  51 SE21      29.95

WESTERN MEXICO

CITY           SKY/WX    TMP DP  RH WIND       PRES   REMARKS
AGUASCALIENTES MOSUNNY   72  52  49 SW6       30.27
COLIMA           N/A    N/A N/A N/A MISG        N/A
DEL BAJIO      PTSUNNY   73  57  56 E10       30.27F
GUADALAJARA    PTSUNNY   75  59  57 CALM      30.16
MANZANILLO     PTSUNNY   90  77  66 SW7       29.86R HX 102
MAZATLAN       PTSUNNY   82  75  78 S7        29.85S
P. VALLARTA    PTSUNNY   88  73  62 CALM      29.87F HX  96
URUAPAN        DRIZZLE   70  59  68 SE9       30.21S
ZACATECAS      PTSUNNY   90  77  66 SW7       29.86F HX 102

CENTRAL MEXICO

CITY           SKY/WX    TMP DP  RH WIND       PRES   REMARKS
CUERNAVACA     CLOUDY    79  59  50 CALM      30.07F
MEXICO CITY    PTSUNNY   72  48  43 SE10G22   30.33F
MORELIA        PTSUNNY   77  59  53 S6        30.23
POZA RICA      PTSUNNY   86  77  74 NE7       29.98  HX  97
PUEBLA         PTSUNNY   77  61  57 S14       30.39F
QUERETARO      MOSUNNY   72  57  60 E6        30.30F
S. LUIS POTOSI PTSUNNY   72  55  56 NW10      30.24F
TAMPICO        MOSUNNY   86  70  58 SW7       29.94F HX  90
TOLUCA         PTSUNNY   64  46  52 S16       30.42F

SOUTHERN MEXICO

CITY           SKY/WX    TMP DP  RH WIND       PRES   REMARKS
ACAPULCO       RAIN      77  75  94 E16       29.94F VSB 1/2
B. DE HUATULCO PTSUNNY   81  72  74 CALM      30.01
OAXACA         PTSUNNY   75  55  50 SE7       30.25F
P. ESCONDIDO   PTSUNNY   84  72  65 S8        30.10S
VERACRUZ       PTSUNNY   84  73  70 NE8       29.92F HX  91
ZIHUATANEJO    CLOUDY    81  75  83 E6        29.89F

YUCATAN PENINSULA

CITY           SKY/WX    TMP DP  RH WIND       PRES   REMARKS
CAMPECHE       MOSUNNY   88  75  66 E6        29.91F HX  97
CANCUN         MOSUNNY   88  73  62 SE8       29.95F HX  96
CHETUMAL       MOSUNNY   88  81  79 SE6       29.92F HX 105
CD. DEL CARMEN MOSUNNY   86  75  70 N6        29.93  HX  95
COZUMEL        PTSUNNY   81  79  94 NW6       29.98S
MERIDA         PTSUNNY   90  70  51 SE5       29.94F HX  95
MINATITLAN     PTSUNNY   86  73  66 S7        29.92  HX  93
TAPACHULA      MOSUNNY   88  75  66 W12       29.93F HX  97
TUX. GUTIERREZ MOSUNNY   84  68  58 E2        30.01F
VILLAHERMOSA   CLOUDY    84  73  70 CALM      29.95F HX  91

CENTRAL AMERICA

CITY           SKY/WX    TMP DP  RH WIND       PRES   REMARKS
BELIZE CITY    PTSUNNY   88  77  70 E5        29.92F HX 100

CARIBBEAN

CITY           SKY/WX    TMP DP  RH WIND       PRES   REMARKS
ARUBA          PTSUNNY   88  77  70 SE12      29.83F HX 100
KINGSTON       MOSUNNY   90  77  66 SE17      29.89F THUNDER HX 102
NASSAU         MOSUNNY   88  77  70 SE3       29.95F HX 100
SAN JUAN       PTSUNNY   88  75  66 NE15      29.94F HX  97
SANTO DOMINGO  MOSUNNY   88  75  66 SE9       29.92F HX  97
ST. CROIX      MOSUNNY   88  75  66 E10       29.95F HX  97
ST. KITTS      MOSUNNY   90  75  62 NE16      29.94S HX 100
ST. MAARTEN    MOSUNNY   88  73  62 E9        29.94S HX  96
ST. THOMAS     MOSUNNY   88  75  66 S13       29.94F HX  97

$$



USA.gov is the U.S. government's official web portal to all federal, state and local government web resources and services.